STARLINK-11477, 62471

Orbit data source: Space-Track

STARLINK-11477, 62471 is a payload satellite owned by SpaceX/Seattle (US) in LEO that was launched on Tue, 31 Dec 2024 UTC via an FALCON 9 launch vehicle from the Air Force Eastern Test Range (AFETR). Payload-class satellites include a variety of spacecraft equipped with specific instruments for various scientific and technological missions. These include communications satellites like Starlink; space stations such as the ISS; scientific satellites like the Hubble; Earth observation satellites from companies like Planet Labs, Umbra, and HawkEye 360; GPS; miniature CubeSats for education and research; and military/defense satellites.

Loading next visibility...
Identifier
62471, 2024-254K
Orbit
LEO
Last TLE update
19 hours ago
Origin
Manufacturer
SpaceX/Seattle
Mission
Operational Commercial Communications
Bus & Motor
STARLINK V2M, Unknown motor
Mass
730 kg wet, ~700 kg dry
Launch date (UTC)
2024-12-31 (6 months ago)
Launch vehicle
FALCON 9
Launch site
Air Force Eastern Test Range (AFETR)
Object type
Payload
Rocket body
Debris
Shape & HBR
Box + 2 Pan, 29 m
Radar Cross Section
36.964 m², Large (>1 m²)

Expand to show TLE details & history

TLE from 19 hours ago
0 STARLINK-11477
1 62471U 24254K   25191.20094994  .00146011  00000-0  11199-2 0  9998
2 62471  42.9983 244.6576 0003988 296.3112  63.7345 15.70867807 31251
Epoch: 2025-07-10T04:49Z
TLE epoch observation values (Epoch: 2025-07-10T04:49:22.074Z)
Latitude
-0.00009°
Longitude
-116.0551°
Altitude
354.999 km
Speed
7.699 km/s
True Right ascension
16h 18m 37s
True Declination
0° 00' 00"
Sunlit
Object was in full shadow at epoch
Visualization orbit readout
Latitude
-38.7587°
Longitude
117.96857°
Altitude
365.747 km
Speed
7.691 km/s
Apparent Right ascension
04h 22m 59s
Apparent Declination
-55° 27' 50"
Sunlit
Object is in daylight
Visualization observer readout
Local Sidereal Time
12:26:45
Azimuth
227.55° WSW
Elevation
-48.778°
Doppler factor
1
Orbital elements
Apogee altitude
361.084 km
Perigee altitude
355.711 km
Semi-major axis
6,736.534 km
Eccentricity
0.0004
Inclination
42.9983°
RAAN
244.6576°
Arg. of periapsis
296.3112°
True anomaly
Unknown
Mean anomaly
63.7345°
Eccentric anomaly
Unknown
Mean motion
3.92544 °/min
Orbital period
91.71 mins
BSTAR
0.0011199
Loading maneuver chart data...
Loading SW <> Apogee altitude chart data...
Loading historical data...
Loading historical data...
Loading historical data...
Loading historical data...
Loading historical data...
Loading historical data...
Loading historical data...

STARLINK-11477 Visibility forecast

Observer location: undefined°, undefined°

Span
Click to sort rows by Start time (UTC) header in descending order
Start Az.
Max El. time (UTC)
Max El. Az.
Max El.
End time (UTC)
End Az.
5 mins2025-07-11 06:58:34.081Z225.487° WSW2025-07-11 07:01:34.081Z138.083° SSE32.746°2025-07-11 07:03:34.081Z85.426° E
4 mins2025-07-11 08:35:34.081Z278.149° WNW2025-07-11 08:37:34.081Z7.335° NNE38.022°2025-07-11 08:39:34.081Z65.059° ENE
4 mins2025-07-11 10:12:34.081Z309.133° NW2025-07-11 10:13:34.081Z356.545° N36.555°2025-07-11 10:16:34.081Z84.424° E
4 mins2025-07-11 11:48:34.081Z268.018° W2025-07-11 11:49:34.081Z226.782° WSW37.429°2025-07-11 11:52:34.081Z127.208° SE
|